[[{"header":{"parameterUnit":"m.s-1","parameterCategory":1,"la1":30.2991,"la2":30.254,"lo1":-89.0895,"lo2":-89.0444,"dy":0.0017,"dx":0.0017,"nx":28,"ny":28,"refTime":"2025-08-21T03:00:00:Z","depth":0,"parameterNumber":2,"parameterNumberName":"U-component_of_WINDS"},"data":[0,0,0,0,0,0,0,0,0,0,0,0,0,0,0,0,0,0,0,0,0,0,0,0,0,0,0,0,0,0,0,0,0,0,0,0,0,0,0,0,0,0,0,0,0,0,0,0,0,0,0,0,0,0,0,0,0,0,0.6079,0.608,0,0.6209,0.6211,0.6212,0.6265,0.6265,0.6264,0.6264,0.6402,0.6406,0.641,0,0,0,0,0,0,0,0,0,0,0,0,0,0.5879,0.5882,0.6078,0.608,0.6082,0.6209,0.6211,0.6212,0.6265,0.6265,0.6264,0.6264,0.6401,0.6406,0.641,0,0,0,0,0,0,0,0,0,0,0,0,0,0.5983,0.5883,0.6078,0.6123,0.6129,0.6208,0.6211,0.6213,0.6265,0.6265,0.6264,0.6264,0.6399,0.6405,0.6411,0.6457,0,0,0.6429,0.6432,0,0,0,0,0,0,0,0,0.5977,0.599,0.6115,0.612,0.6126,0.622,0.6191,0.6295,0.6265,0.6213,0.6264,0.6264,0.6342,0.6353,0.6379,0.6464,0.647,0.643,0.6433,0.6436,0.6438,0,0,0,0,0,0,0,0.597,0.5985,0.613,0.6117,0.6124,0.6138,0.6153,0.6211,0.6279,0.6218,0.6222,0.6237,0.6345,0.6373,0.6382,0.6472,0.643,0.6435,0.6439,0.6441,0.6602,0.6602,0,0,0,0,0,0,0.5955,0.5979,0.6126,0.6134,0.6049,0.6142,0.6158,0.6191,0.6279,0.6291,0.6237,0.6239,0.6363,0.6375,0.6387,0.6447,0.6436,0.6442,0.6445,0.6601,0.6602,0.6602,0,0,0,0,0,0,0.595,0.5967,0.6121,0.6058,0.6078,0.6146,0.6182,0.6193,0.6221,0.6293,0.6306,0.6252,0.6363,0.6379,0.6439,0.6453,0.6444,0.645,0.66,0.6601,0.6602,0.6567,0,0,0,0,0,0,0.5944,0.5965,0.5983,0.6058,0.6081,0.6169,0.6183,0.6196,0.623,0.6234,0.631,0.6323,0.6364,0.643,0.6445,0.6461,0.6454,0.6599,0.6601,0.6602,0.6568,0.6567,0.6567,0,0,0,0,0,0.5937,0.5969,0.5983,0.6001,0.6104,0.617,0.6184,0.6229,0.6231,0.625,0.6296,0.632,0.6449,0.6436,0.6453,0.6471,0.6599,0.66,0.6602,0.6568,0.6567,0.6567,0,0,0,0,0,0,0.5895,0.5979,0.5996,0.6053,0.6104,0.6179,0.6204,0.6227,0.6279,0.628,0.6336,0.6353,0.6408,0.6446,0.643,0.652,0.6526,0.6531,0.6494,0.6494,0.6493,0.6484,0.6459,0,0,0,0,0,0.5892,0.5937,0.6009,0.6052,0.6076,0.6135,0.6166,0.6196,0.6251,0.6274,0.6324,0.6378,0.6431,0.6464,0.6517,0.6573,0.6591,0.6594,0.6594,0.6593,0.6597,0.663,0.6632,0.6608,0.6608,0.6608,0,0,0.5887,0.5939,0.5964,0.6045,0.6088,0.6134,0.6153,0.6202,0.6237,0.6282,0.6341,0.638,0.6444,0.6502,0.6531,0.6535,0.6607,0.6595,0.6594,0.6598,0.6632,0.6634,0.6636,0.6609,0.6608,0.6608,0,0,0.5902,0.5945,0.5986,0.6028,0.6092,0.6131,0.614,0.6212,0.6239,0.6299,0.6334,0.6377,0.6466,0.6511,0.6545,0.6575,0.66,0.6591,0.6589,0.662,0.6622,0.6624,0.6636,0.6639,0.6595,0.6595,0.6595,0,0.5888,0.5958,0.6004,0.6051,0.6085,0.6126,0.6168,0.6208,0.6286,0.631,0.6313,0.6426,0.6472,0.6541,0.6548,0.6574,0.6588,0.6583,0.6618,0.662,0.6623,0.6635,0.6639,0.6593,0.6593,0.6593,0.6594,0,0.5939,0.5987,0.6012,0.6085,0.6123,0.6167,0.622,0.6253,0.628,0.6319,0.638,0.6437,0.6501,0.652,0.6547,0.6593,0.6594,0.6607,0.6613,0.6623,0.6635,0.664,0.6591,0.6592,0.6592,0.6592,0,0,0.5932,0.6028,0.6037,0.6071,0.6144,0.6183,0.6229,0.629,0.6318,0.637,0.6411,0.6485,0.6498,0.6536,0.6569,0.6596,0.6618,0.6607,0.6609,0.6607,0.6672,0.6662,0.6666,0.6634,0.6635,0.6636,0.6667,0,0.5957,0.6039,0.6082,0.6147,0.6193,0.6232,0.6272,0.6322,0.6359,0.6404,0.6447,0.6498,0.651,0.6534,0.6563,0.6609,0.6631,0.6607,0.6674,0.6675,0.6657,0.6673,0.6662,0.6689,0.6672,0.6673,0.6673,0,0.5997,0.6047,0.6117,0.6184,0.6205,0.624,0.63,0.6342,0.64,0.6425,0.6468,0.65,0.6551,0.6553,0.6625,0.6607,0.6637,0.6664,0.6666,0.6675,0.6675,0.6682,0.6699,0.6703,0.6681,0.668,0.668,0,0.5985,0.6071,0.6123,0.6151,0.6231,0.6255,0.629,0.6347,0.6381,0.6434,0.6457,0.6515,0.6547,0.6592,0.6639,0.6636,0.6707,0.6713,0.673,0.6729,0.6744,0.6743,0.6766,0.6762,0.6762,0.6762,0.6762,0,0.6009,0.605,0.6119,0.6151,0.6199,0.6247,0.6293,0.6332,0.6382,0.6423,0.6461,0.6499,0.6559,0.6605,0.6642,0.6696,0.6711,0.6733,0.6743,0.673,0.6727,0.6751,0.6751,0.6763,0.6763,0.6763,0.6762,0,0.6004,0.6052,0.6112,0.6182,0.6201,0.6233,0.6294,0.6328,0.6366,0.6418,0.6433,0.6495,0.6551,0.6602,0.6677,0.6702,0.6757,0.6769,0.6737,0.6743,0.6758,0.6756,0.6798,0.6806,0.6795,0.6795,0.6795,0,0.6016,0.6049,0.6122,0.6152,0.6185,0.6233,0.6268,0.6317,0.6352,0.642,0.6445,0.6503,0.6553,0.6641,0.6693,0.6751,0.6765,0.6775,0.6774,0.676,0.6766,0.6763,0.6767,0.6775,0.6775,0.6775,0.6775,0,0.6033,0.6055,0.6103,0.6159,0.6199,0.6245,0.6294,0.6316,0.6375,0.6412,0.6469,0.6507,0.6583,0.6641,0.6704,0.6742,0.6768,0.6775,0.6782,0.677,0.675,0.6761,0.6736,0.6774,0.6774,0.6774,0.6774,0.6774,0.6038,0.6068,0.6125,0.6177,0.6218,0.6262,0.6296,0.6339,0.6387,0.6451,0.6478,0.6536,0.6593,0.6681,0.6718,0.6765,0.677,0.678,0.6783,0.6785,0.6783,0.6742,0.6776,0.6776,0.6777,0.6777,0.6777,0,0.6057,0.6095,0.6142,0.6208,0.6249,0.6268,0.6323,0.6356,0.6406,0.6456,0.6504,0.6569,0.6625,0.6682,0.6741,0.6768,0.6782,0.6782,0.6781,0.6789,0.6774,0.6762,0.677,0.677,0.677,0.677,0.677,0.677,0.6072,0.6124,0.6153,0.6226,0.6265,0.632,0.635,0.6391,0.6431,0.6502,0.6548,0.6584,0.6637,0.6701,0.6753,0.6768,0.6789,0.6786,0.6804,0.679,0.679,0.679,0.6779,0.679,0.679,0.6815,0.6815,0.6815]},{"header":{"parameterUnit":"m.s-1","parameterCategory":1,"la1":30.2991,"la2":30.254,"lo1":-89.0895,"lo2":-89.0444,"dy":0.0017,"dx":0.0017,"nx":28,"ny":28,"refTime":"2025-08-21T03:00:00:Z","depth":0,"parameterNumber":3,"parameterNumberName":"V-component_of_WINDS"},"data":[0,0,0,0,0,0,0,0,0,0,0,0,0,0,0,0,0,0,0,0,0,0,0,0,0,0,0,0,0,0,0,0,0,0,0,0,0,0,0,0,0,0,0,0,0,0,0,0,0,0,0,0,0,0,0,0,0,0,2.0307,2.0306,0,2.0296,2.0296,2.0295,2.0288,2.0288,2.0288,2.0288,2.0276,2.0275,2.0275,0,0,0,0,0,0,0,0,0,0,0,0,0,2.0318,2.0317,2.0307,2.0306,2.0306,2.0296,2.0296,2.0295,2.0288,2.0288,2.0288,2.0288,2.0276,2.0275,2.0275,0,0,0,0,0,0,0,0,0,0,0,0,0,2.031,2.0317,2.0307,2.0302,2.0301,2.0296,2.0296,2.0295,2.0288,2.0288,2.0288,2.0288,2.0276,2.0275,2.0275,2.0273,0,0,2.0274,2.0273,0,0,0,0,0,0,0,0,2.0311,2.031,2.0302,2.0302,2.0301,2.0293,2.0295,2.0288,2.0288,2.0293,2.0288,2.0288,2.0282,2.0281,2.0279,2.0273,2.0272,2.0274,2.0273,2.0273,2.0273,0,0,0,0,0,0,0,2.0311,2.031,2.0302,2.0302,2.0302,2.0299,2.0298,2.0294,2.0288,2.0293,2.0292,2.0291,2.0281,2.0279,2.0278,2.0272,2.0274,2.0273,2.0273,2.0273,2.0261,2.0261,0,0,0,0,0,0,2.0313,2.0311,2.0303,2.0302,2.0306,2.0299,2.0297,2.0296,2.0288,2.0287,2.0291,2.0291,2.028,2.0279,2.0278,2.0274,2.0273,2.0273,2.0272,2.0261,2.0261,2.0261,0,0,0,0,0,0,2.0313,2.0312,2.0303,2.0306,2.0305,2.0298,2.0297,2.0296,2.0294,2.0287,2.0285,2.029,2.028,2.0278,2.0274,2.0273,2.0273,2.0272,2.0261,2.0261,2.0261,2.0266,0,0,0,0,0,0,2.0314,2.0313,2.0313,2.0306,2.0305,2.0301,2.0297,2.0296,2.0293,2.0293,2.0286,2.0284,2.028,2.0275,2.0274,2.0272,2.0272,2.0261,2.0261,2.0261,2.0266,2.0266,2.0267,0,0,0,0,0,2.0314,2.0315,2.0313,2.0312,2.0305,2.0301,2.0299,2.0295,2.0293,2.0293,2.0288,2.0284,2.0273,2.0274,2.0273,2.0272,2.0261,2.0261,2.0261,2.0266,2.0266,2.0267,0,0,0,0,0,0,2.0322,2.0314,2.0312,2.0311,2.0306,2.0299,2.0299,2.0296,2.0291,2.0291,2.0284,2.0283,2.0278,2.0275,2.0276,2.0268,2.0267,2.0266,2.0271,2.0271,2.0271,2.0272,2.0271,0,0,0,0,0,2.0323,2.0321,2.0314,2.0314,2.0312,2.0306,2.0303,2.03,2.0295,2.0293,2.0288,2.0282,2.0277,2.0274,2.0269,2.0265,2.0263,2.0264,2.0264,2.0264,2.0264,2.0259,2.0259,2.0261,2.0261,2.0261,0,0,2.0327,2.0322,2.0321,2.0315,2.0311,2.0308,2.0304,2.0301,2.0298,2.0292,2.0287,2.0283,2.0276,2.0271,2.0269,2.0268,2.0262,2.0264,2.0264,2.0264,2.0259,2.0259,2.0258,2.0261,2.0261,2.0261,0,0,2.033,2.0328,2.0326,2.0322,2.0316,2.0311,2.0311,2.0304,2.0301,2.0296,2.029,2.0286,2.0278,2.0273,2.0269,2.0268,2.0264,2.0266,2.0267,2.0263,2.0263,2.0262,2.026,2.026,2.0266,2.0266,2.0266,0,2.0335,2.0331,2.0325,2.0322,2.0319,2.0313,2.031,2.0306,2.0299,2.0296,2.0295,2.0283,2.0278,2.0271,2.027,2.0268,2.0266,2.0267,2.0263,2.0263,2.0263,2.0261,2.026,2.0266,2.0266,2.0266,2.0266,0,2.0335,2.0332,2.0331,2.0324,2.032,2.0317,2.031,2.0307,2.0303,2.0298,2.0292,2.0285,2.0278,2.0276,2.0273,2.0267,2.0267,2.0265,2.0263,2.0263,2.0261,2.026,2.0267,2.0267,2.0267,2.0266,0,0,2.0345,2.0333,2.0333,2.0329,2.032,2.0317,2.0312,2.0305,2.0302,2.0296,2.0291,2.0283,2.0281,2.0276,2.0272,2.0268,2.0265,2.0266,2.0266,2.0265,2.0256,2.0257,2.0257,2.0262,2.0262,2.0262,2.0256,0,2.0347,2.034,2.0334,2.0328,2.0323,2.0316,2.0312,2.0306,2.03,2.0295,2.0288,2.0282,2.028,2.0277,2.0273,2.0266,2.0263,2.0267,2.0256,2.0256,2.0257,2.0256,2.0257,2.0253,2.0256,2.0256,2.0255,0,2.0348,2.0342,2.0336,2.0326,2.0324,2.032,2.0312,2.0307,2.0299,2.0295,2.0289,2.0284,2.0277,2.0276,2.0265,2.0267,2.0262,2.0258,2.0258,2.0256,2.0255,2.0253,2.0251,2.025,2.0254,2.0254,2.0254,0,2.0354,2.0344,2.0339,2.0335,2.0324,2.0321,2.0316,2.0308,2.0303,2.0295,2.0292,2.0283,2.0278,2.0271,2.0263,2.0263,2.0252,2.0251,2.0247,2.0248,2.0245,2.0246,2.0242,2.0244,2.0244,2.0244,2.0244,0,2.0356,2.0352,2.0341,2.0337,2.0332,2.0324,2.0319,2.0313,2.0305,2.0299,2.0292,2.0287,2.0277,2.0269,2.0263,2.0254,2.0252,2.0247,2.0245,2.0247,2.0248,2.0244,2.0243,2.0244,2.0244,2.0244,2.0244,0,2.0362,2.0354,2.0347,2.0337,2.0334,2.033,2.032,2.0315,2.0309,2.0301,2.0299,2.0288,2.0279,2.027,2.0258,2.0253,2.0243,2.0242,2.0246,2.0245,2.0241,2.0241,2.0234,2.0232,2.0237,2.0237,2.0236,0,2.0363,2.036,2.0348,2.0344,2.0339,2.0332,2.0327,2.0318,2.0313,2.0301,2.0297,2.0287,2.0279,2.0264,2.0255,2.0244,2.0241,2.024,2.024,2.0241,2.024,2.024,2.0238,2.024,2.024,2.024,2.024,0,2.0366,2.0362,2.0355,2.0346,2.034,2.0332,2.0325,2.0321,2.031,2.0304,2.0295,2.0288,2.0274,2.0264,2.0252,2.0245,2.024,2.0239,2.0238,2.0239,2.0242,2.0239,2.0245,2.024,2.024,2.024,2.024,2.024,2.0369,2.0364,2.0355,2.0347,2.034,2.0332,2.0326,2.0319,2.031,2.0299,2.0294,2.0284,2.0273,2.0256,2.0249,2.024,2.0239,2.0237,2.0236,2.0236,2.0235,2.0244,2.0238,2.0238,2.0238,2.0238,2.0238,0,2.037,2.0363,2.0355,2.0344,2.0337,2.0333,2.0323,2.0317,2.0308,2.0299,2.029,2.0277,2.0267,2.0256,2.0244,2.0238,2.0235,2.0235,2.0235,2.0233,2.0238,2.024,2.0237,2.0237,2.0237,2.0238,2.0238,2.0238,2.0369,2.0361,2.0356,2.0343,2.0336,2.0326,2.0321,2.0313,2.0305,2.0291,2.0282,2.0275,2.0264,2.0251,2.024,2.0237,2.0232,2.0232,2.0228,2.0233,2.0233,2.0233,2.0235,2.0232,2.0232,2.0224,2.0224,2.0224]}]]